Regional Weather Roundup
Issued by NWS

Home | Current Version | Previous Version | Text Only | Print | Product List | Glossary Off
Versions: 1 2 3 4 5 6 7 8 9 10 11 12 13 14 15 16 17 18 19 20 21 22 23 24 25 26 27 28 29 30 31 32 33 34 35 36 37 38 39 40 41 42 43 44 45 46 47 48 49 50

000
ASUS43 KBIS 071102
RWRND

NORTH DAKOTA REGIONAL WEATHER ROUNDUP
NATIONAL WEATHER SERVICE BISMARCK ND
600 AM CDT TUE JUL 07 2015

NOTE: "FAIR" INDICATES FEW OR NO CLOUDS BELOW 12,000 FEET WITH NO
SIGNIFICANT WEATHER AND/OR OBSTRUCTIONS TO VISIBILITY.


NDZ001>003-009>011-017-071200-
NORTHWEST NORTH DAKOTA

CITY           SKY/WX    TMP DP  RH WIND       PRES   REMARKS
WILLISTON      CLEAR     54  49  83 SW3       30.14F
MINOT          CLEAR     49  44  83 CALM      30.15F
$$

NDZ018>021-031>035-040>046-071200-
SOUTHWEST NORTH DAKOTA

CITY           SKY/WX    TMP DP  RH WIND       PRES   REMARKS
BISMARCK       CLEAR     46  44  93 E3        30.20S
DICKINSON      CLEAR     50  47  89 S10       30.15F FOG
GARRISON         N/A     51  46  83 S5        30.17S
HETTINGER ARPT CLEAR     51  49  92 E7        30.18F FOG
$$

NDZ004>008-012>016-024-026-027-054-071200-
NORTHEAST NORTH DAKOTA

CITY           SKY/WX    TMP DP  RH WIND       PRES   REMARKS
GRAND FORKS    CLEAR     44  42  93 W6        30.17S
GRND FRKS AFB  CLEAR     43  41  94 W3        30.17S
DEVILS LAKE    CLEAR     55  46  71 SW14      30.17S
$$

NDZ022-023-025-028>030-036>039-047>053-071200-
SOUTHEAST NORTH DAKOTA

CITY           SKY/WX    TMP DP  RH WIND       PRES   REMARKS
FARGO          CLEAR     42  39  89 CALM      30.19R
JAMESTOWN      CLEAR     49  46  90 SW3       30.20R
$$



USA.gov is the U.S. government's official web portal to all federal, state and local government web resources and services.